When you browse on this site, cookies collect data to enhance your experience and personalize the content and advertising you see.
Visit our Privacy Policy to learn more. By continuing to use the site, you agree to this use of cookies and data.

Stündliche Wetter Tyrlova Balka

Heute, 14 Juli, Dienstag

Zeit Temperatur Niederschläge Wind Luftdruck Luftfeuchtigkeit
00:00 +14°C° 0 mm 7 m/S 744 mmHg 78%
01:00 +14°C° 0 mm 7 m/S 744 mmHg 79%
02:00 +14°C° 0 mm 6 m/S 744 mmHg 80%
03:00 +14°C° 0.1 mm 6 m/S 744 mmHg 81%
04:00 +14°C° 0.1 mm 7 m/S 743 mmHg 81%
05:00 +14°C° 0.1 mm 7 m/S 743 mmHg 82%
06:00 +14°C° 0.1 mm 7 m/S 743 mmHg 80%
07:00 +15°C° 0.1 mm 7 m/S 743 mmHg 78%
08:00 +15°C° 0.1 mm 7 m/S 743 mmHg 76%
09:00 +16°C° 0 mm 7 m/S 744 mmHg 73%
10:00 +17°C° 0 mm 7 m/S 744 mmHg 71%
11:00 +17°C° 0 mm 7 m/S 744 mmHg 68%
12:00 +17°C° 0.1 mm 7 m/S 744 mmHg 67%
13:00 +17°C° 0.1 mm 7 m/S 744 mmHg 67%
14:00 +18°C° 0.1 mm 7 m/S 744 mmHg 67%
15:00 +19°C° 0.2 mm 6 m/S 744 mmHg 67%
16:00 +19°C° 0.2 mm 6 m/S 744 mmHg 67%
17:00 +19°C° 0.2 mm 6 m/S 744 mmHg 67%
18:00 +17°C° 0 mm 5 m/S 744 mmHg 72%
19:00 +17°C° 0 mm 4 m/S 745 mmHg 77%
20:00 +16°C° 0 mm 3 m/S 745 mmHg 82%
21:00 +14°C° 0 mm 3 m/S 745 mmHg 84%
22:00 +13°C° 0 mm 3 m/S 745 mmHg 86%
23:00 +13°C° 0 mm 3 m/S 746 mmHg 89%

Morgen, 15 Juli, Mittwoch

Zeit Temperatur Niederschläge Wind Luftdruck Luftfeuchtigkeit
00:00 +12°C° 0 mm 3 m/S 746 mmHg 89%
01:00 +12°C° 0 mm 3 m/S 746 mmHg 89%
02:00 +12°C° 0 mm 3 m/S 746 mmHg 89%
03:00 +12°C° 0 mm 3 m/S 746 mmHg 88%
04:00 +12°C° 0 mm 3 m/S 746 mmHg 87%
05:00 +12°C° 0 mm 3 m/S 747 mmHg 86%
06:00 +14°C° 0 mm 3 m/S 747 mmHg 77%
07:00 +18°C° 0 mm 3 m/S 747 mmHg 68%
08:00 +20°C° 0 mm 4 m/S 748 mmHg 59%
09:00 +21°C° 0 mm 4 m/S 747 mmHg 54%
10:00 +22°C° 0 mm 4 m/S 747 mmHg 49%
11:00 +25°C° 0 mm 4 m/S 747 mmHg 45%
12:00 +25°C° 0 mm 4 m/S 747 mmHg 44%
13:00 +25°C° 0 mm 4 m/S 747 mmHg 43%
14:00 +26°C° 0 mm 4 m/S 747 mmHg 43%
15:00 +25°C° 0 mm 4 m/S 747 mmHg 44%
16:00 +25°C° 0 mm 4 m/S 747 mmHg 45%
17:00 +25°C° 0 mm 4 m/S 747 mmHg 46%
18:00 +22°C° 0 mm 3 m/S 747 mmHg 53%
19:00 +21°C° 0 mm 3 m/S 747 mmHg 59%
20:00 +19°C° 0 mm 2 m/S 747 mmHg 65%
21:00 +18°C° 0 mm 2 m/S 747 mmHg 68%
22:00 +17°C° 0 mm 2 m/S 747 mmHg 71%
23:00 +18°C° 0 mm 1 m/S 747 mmHg 74%

übermorgen, 16 Juli, Donnerstag

Zeit Temperatur Niederschläge Wind Luftdruck Luftfeuchtigkeit
00:00 +16°C° 0 mm 1 m/S 747 mmHg 76%
01:00 +16°C° 0 mm 1 m/S 748 mmHg 78%
02:00 +15°C° 0 mm 1 m/S 748 mmHg 80%
03:00 +16°C° 0 mm 1 m/S 747 mmHg 80%
04:00 +16°C° 0 mm 1 m/S 747 mmHg 81%
05:00 +16°C° 0 mm 1 m/S 747 mmHg 81%
06:00 +19°C° 0 mm 1 m/S 747 mmHg 74%
07:00 +21°C° 0 mm 1 m/S 748 mmHg 67%
08:00 +23°C° 0 mm 1 m/S 748 mmHg 59%
09:00 +24°C° 0 mm 1 m/S 748 mmHg 55%
10:00 +25°C° 0 mm 2 m/S 747 mmHg 50%
11:00 +26°C° 0 mm 2 m/S 747 mmHg 45%
12:00 +27°C° 0 mm 2 m/S 747 mmHg 43%
13:00 +27°C° 0 mm 2 m/S 747 mmHg 40%
14:00 +28°C° 0 mm 2 m/S 746 mmHg 38%
15:00 +27°C° 0 mm 1 m/S 746 mmHg 38%
16:00 +27°C° 0 mm 1 m/S 746 mmHg 39%
17:00 +27°C° 0 mm 1 m/S 745 mmHg 39%
18:00 +26°C° 0 mm 1 m/S 745 mmHg 44%
19:00 +24°C° 0 mm 1 m/S 746 mmHg 48%
20:00 +23°C° 0 mm 1 m/S 746 mmHg 52%
21:00 +22°C° 0 mm 1 m/S 746 mmHg 55%
22:00 +20°C° 0 mm 2 m/S 746 mmHg 58%
23:00 +20°C° 0 mm 2 m/S 746 mmHg 61%

17 Juli, Freitag

Zeit Temperatur Niederschläge Wind Luftdruck Luftfeuchtigkeit
00:00 +19°C° 0 mm 2 m/S 746 mmHg 62%
01:00 +19°C° 0 mm 2 m/S 746 mmHg 63%
02:00 +18°C° 0 mm 2 m/S 746 mmHg 64%
03:00 +18°C° 0 mm 2 m/S 746 mmHg 66%
04:00 +19°C° 0 mm 1 m/S 745 mmHg 68%
05:00 +19°C° 0 mm 1 m/S 745 mmHg 69%
06:00 +21°C° 0 mm 1 m/S 746 mmHg 64%
07:00 +23°C° 0 mm 1 m/S 746 mmHg 58%
08:00 +25°C° 0 mm 1 m/S 746 mmHg 52%
09:00 +26°C° 0 mm 1 m/S 746 mmHg 48%
10:00 +27°C° 0 mm 1 m/S 746 mmHg 43%
11:00 +28°C° 0 mm 1 m/S 746 mmHg 39%
12:00 +28°C° 0 mm 1 m/S 746 mmHg 38%
13:00 +28°C° 0 mm 1 m/S 746 mmHg 38%
14:00 +28°C° 0 mm 1 m/S 746 mmHg 37%
15:00 +28°C° 0 mm 1 m/S 746 mmHg 38%
16:00 +28°C° 0 mm 1 m/S 746 mmHg 39%
17:00 +28°C° 0 mm 1 m/S 746 mmHg 40%
18:00 +27°C° 0 mm 1 m/S 746 mmHg 43%
19:00 +26°C° 0 mm 1 m/S 746 mmHg 46%
20:00 +24°C° 0 mm 1 m/S 746 mmHg 49%
21:00 +24°C° 0 mm 2 m/S 746 mmHg 50%
22:00 +24°C° 0 mm 2 m/S 746 mmHg 51%
23:00 +23°C° 0 mm 2 m/S 746 mmHg 52%

18 Juli, Samstag

Zeit Temperatur Niederschläge Wind Luftdruck Luftfeuchtigkeit
00:00 +23°C° 0 mm 2 m/S 746 mmHg 54%
01:00 +21°C° 0 mm 2 m/S 746 mmHg 56%
02:00 +21°C° 0 mm 2 m/S 746 mmHg 58%
03:00 +20°C° 0 mm 2 m/S 746 mmHg 61%
04:00 +20°C° 0 mm 2 m/S 747 mmHg 64%
05:00 +19°C° 0 mm 2 m/S 747 mmHg 66%
06:00 +21°C° 0 mm 2 m/S 747 mmHg 61%
07:00 +24°C° 0 mm 3 m/S 747 mmHg 56%
08:00 +26°C° 0 mm 3 m/S 747 mmHg 51%
09:00 +27°C° 0 mm 3 m/S 747 mmHg 47%
10:00 +28°C° 0 mm 3 m/S 747 mmHg 42%
11:00 +29°C° 0 mm 4 m/S 747 mmHg 38%
12:00 +29°C° 0 mm 4 m/S 747 mmHg 37%
13:00 +30°C° 0 mm 3 m/S 747 mmHg 36%
14:00 +30°C° 0 mm 3 m/S 746 mmHg 35%
15:00 +30°C° 0 mm 3 m/S 746 mmHg 37%
16:00 +29°C° 0 mm 3 m/S 746 mmHg 39%
17:00 +29°C° 0 mm 3 m/S 746 mmHg 41%
18:00 +28°C° 0 mm 3 m/S 746 mmHg 44%
19:00 +26°C° 0 mm 3 m/S 746 mmHg 47%
20:00 +25°C° 0 mm 3 m/S 746 mmHg 51%
21:00 +24°C° 0 mm 3 m/S 746 mmHg 52%
22:00 +22°C° 0 mm 3 m/S 746 mmHg 54%
23:00 +21°C° 0 mm 3 m/S 746 mmHg 56%

19 Juli, Sonntag

Zeit Temperatur Niederschläge Wind Luftdruck Luftfeuchtigkeit
00:00 +21°C° 0 mm 3 m/S 746 mmHg 57%
01:00 +20°C° 0 mm 3 m/S 746 mmHg 58%
02:00 +20°C° 0 mm 2 m/S 746 mmHg 59%
03:00 +20°C° 0 mm 3 m/S 746 mmHg 61%
04:00 +20°C° 0 mm 3 m/S 746 mmHg 63%
05:00 +20°C° 0 mm 3 m/S 746 mmHg 65%
06:00 +21°C° 0 mm 3 m/S 746 mmHg 60%
07:00 +24°C° 0 mm 3 m/S 746 mmHg 56%
08:00 +26°C° 0 mm 3 m/S 746 mmHg 51%
09:00 +27°C° 0 mm 3 m/S 746 mmHg 48%
10:00 +28°C° 0 mm 3 m/S 746 mmHg 45%
11:00 +29°C° 0 mm 3 m/S 746 mmHg 42%
12:00 +30°C° 0 mm 3 m/S 745 mmHg 39%
13:00 +31°C° 0 mm 3 m/S 745 mmHg 37%
14:00 +31°C° 0 mm 3 m/S 745 mmHg 35%
15:00 +31°C° 0 mm 3 m/S 744 mmHg 38%
16:00 +30°C° 0 mm 3 m/S 744 mmHg 42%
17:00 +29°C° 0 mm 4 m/S 744 mmHg 45%
18:00 +28°C° 0 mm 3 m/S 744 mmHg 50%
19:00 +26°C° 0 mm 3 m/S 744 mmHg 54%
20:00 +25°C° 0 mm 3 m/S 744 mmHg 59%
21:00 +24°C° 0 mm 3 m/S 744 mmHg 61%
22:00 +22°C° 0 mm 3 m/S 744 mmHg 63%
23:00 +21°C° 0 mm 3 m/S 744 mmHg 65%
Mehr zeigen